Hourly Weather Qala i Naw

Today, 3 August, Monday

Time Temperature Precipitation Wind Pressure Humidity
00:00 +21°C° 0 mm 1 mps 676 mmHg 32%
01:00 +20°C° 0 mm 1 mps 675 mmHg 34%
02:00 +19°C° 0 mm 1 mps 675 mmHg 37%
03:00 +16°C° 0 mm 0 mps 675 mmHg 40%
04:00 +16°C° 0 mm 0 mps 675 mmHg 41%
05:00 +18°C° 0 mm 0 mps 676 mmHg 34%
06:00 +21°C° 0 mm 0 mps 676 mmHg 27%
07:00 +24°C° 0 mm 0 mps 677 mmHg 20%
08:00 +28°C° 0 mm 2 mps 677 mmHg 19%
09:00 +30°C° 0 mm 3 mps 677 mmHg 17%
10:00 +33°C° 0 mm 4 mps 677 mmHg 15%
11:00 +34°C° 0 mm 5 mps 677 mmHg 13%
12:00 +35°C° 0 mm 6 mps 677 mmHg 12%
13:00 +38°C° 0 mm 7 mps 677 mmHg 11%
14:00 +38°C° 0 mm 7 mps 676 mmHg 11%
15:00 +38°C° 0 mm 8 mps 676 mmHg 10%
16:00 +38°C° 0 mm 8 mps 676 mmHg 10%
17:00 +35°C° 0 mm 7 mps 676 mmHg 12%
18:00 +33°C° 0 mm 6 mps 676 mmHg 14%
19:00 +29°C° 0 mm 5 mps 676 mmHg 16%
20:00 +27°C° 0 mm 4 mps 675 mmHg 19%
21:00 +25°C° 0 mm 3 mps 675 mmHg 22%
22:00 +23°C° 0 mm 2 mps 675 mmHg 25%
23:00 +22°C° 0 mm 1 mps 675 mmHg 26%

Tomorrow, 4 August, Tuesday

Time Temperature Precipitation Wind Pressure Humidity
00:00 +21°C° 0 mm 1 mps 675 mmHg 28%
01:00 +20°C° 0 mm 1 mps 675 mmHg 30%
02:00 +20°C° 0 mm 1 mps 675 mmHg 31%
03:00 +19°C° 0 mm 1 mps 675 mmHg 32%
04:00 +17°C° 0 mm 0 mps 675 mmHg 33%
05:00 +22°C° 0 mm 1 mps 676 mmHg 28%
06:00 +24°C° 0 mm 1 mps 676 mmHg 23%
07:00 +27°C° 0 mm 1 mps 677 mmHg 18%
08:00 +29°C° 0 mm 2 mps 678 mmHg 17%
09:00 +32°C° 0 mm 4 mps 678 mmHg 15%
10:00 +34°C° 0 mm 5 mps 678 mmHg 14%
11:00 +35°C° 0 mm 7 mps 678 mmHg 13%
12:00 +37°C° 0 mm 8 mps 678 mmHg 12%
13:00 +38°C° 0 mm 9 mps 678 mmHg 12%
14:00 +38°C° 0 mm 9 mps 678 mmHg 11%
15:00 +38°C° 0 mm 9 mps 677 mmHg 11%
16:00 +38°C° 0 mm 10 mps 677 mmHg 11%
17:00 +35°C° 0 mm 9 mps 677 mmHg 13%
18:00 +33°C° 0 mm 7 mps 677 mmHg 15%
19:00 +32°C° 0 mm 6 mps 677 mmHg 17%
20:00 +28°C° 0 mm 5 mps 677 mmHg 21%
21:00 +26°C° 0 mm 3 mps 677 mmHg 25%
22:00 +24°C° 0 mm 2 mps 677 mmHg 29%
23:00 +23°C° 0 mm 2 mps 677 mmHg 33%

Day after tomorrow, 5 August, Wednesday

Time Temperature Precipitation Wind Pressure Humidity
00:00 +23°C° 0 mm 2 mps 677 mmHg 37%
01:00 +21°C° 0 mm 2 mps 677 mmHg 41%
02:00 +20°C° 0 mm 2 mps 676 mmHg 45%
03:00 +20°C° 0 mm 2 mps 676 mmHg 49%
04:00 +19°C° 0 mm 2 mps 676 mmHg 53%
05:00 +21°C° 0 mm 2 mps 677 mmHg 49%
06:00 +23°C° 0 mm 2 mps 677 mmHg 46%
07:00 +25°C° 0 mm 2 mps 678 mmHg 42%
08:00 +27°C° 0 mm 2 mps 678 mmHg 37%
09:00 +28°C° 0 mm 3 mps 678 mmHg 32%
10:00 +30°C° 0 mm 3 mps 678 mmHg 27%
11:00 +33°C° 0 mm 4 mps 678 mmHg 23%
12:00 +35°C° 0 mm 5 mps 678 mmHg 20%
13:00 +36°C° 0 mm 6 mps 678 mmHg 16%
14:00 +38°C° 0 mm 7 mps 678 mmHg 15%
15:00 +38°C° 0 mm 7 mps 677 mmHg 13%
16:00 +39°C° 0 mm 8 mps 677 mmHg 12%
17:00 +36°C° 0 mm 7 mps 677 mmHg 14%
18:00 +34°C° 0 mm 6 mps 677 mmHg 15%
19:00 +32°C° 0 mm 5 mps 677 mmHg 17%
20:00 +29°C° 0 mm 4 mps 677 mmHg 20%
21:00 +26°C° 0 mm 2 mps 677 mmHg 23%
22:00 +24°C° 0 mm 1 mps 676 mmHg 25%
23:00 +23°C° 0 mm 1 mps 676 mmHg 28%

6 August, Thursday

Time Temperature Precipitation Wind Pressure Humidity
00:00 +23°C° 0 mm 1 mps 676 mmHg 30%
01:00 +22°C° 0 mm 1 mps 676 mmHg 32%
02:00 +21°C° 0 mm 1 mps 675 mmHg 33%
03:00 +21°C° 0 mm 1 mps 675 mmHg 33%
04:00 +21°C° 0 mm 1 mps 675 mmHg 34%
05:00 +23°C° 0 mm 1 mps 676 mmHg 29%
06:00 +26°C° 0 mm 1 mps 677 mmHg 24%
07:00 +29°C° 0 mm 1 mps 677 mmHg 19%
08:00 +30°C° 0 mm 2 mps 678 mmHg 17%
09:00 +33°C° 0 mm 3 mps 678 mmHg 15%
10:00 +35°C° 0 mm 4 mps 678 mmHg 13%
11:00 +37°C° 0 mm 5 mps 678 mmHg 13%
12:00 +39°C° 0 mm 6 mps 678 mmHg 12%
13:00 +40°C° 0 mm 7 mps 678 mmHg 11%
14:00 +41°C° 0 mm 7 mps 678 mmHg 11%
15:00 +41°C° 0 mm 7 mps 678 mmHg 10%
16:00 +41°C° 0 mm 7 mps 677 mmHg 10%
17:00 +39°C° 0 mm 7 mps 677 mmHg 11%
18:00 +36°C° 0 mm 6 mps 677 mmHg 13%
19:00 +34°C° 0 mm 6 mps 677 mmHg 14%
20:00 +30°C° 0 mm 4 mps 677 mmHg 17%
21:00 +28°C° 0 mm 3 mps 677 mmHg 20%
22:00 +25°C° 0 mm 1 mps 677 mmHg 22%
23:00 +25°C° 0 mm 1 mps 677 mmHg 24%

7 August, Friday

Time Temperature Precipitation Wind Pressure Humidity
00:00 +24°C° 0 mm 1 mps 676 mmHg 26%
01:00 +23°C° 0 mm 1 mps 676 mmHg 27%
02:00 +22°C° 0 mm 1 mps 676 mmHg 30%
03:00 +21°C° 0 mm 1 mps 676 mmHg 33%
04:00 +21°C° 0 mm 1 mps 676 mmHg 35%
05:00 +23°C° 0 mm 1 mps 677 mmHg 30%
06:00 +25°C° 0 mm 1 mps 678 mmHg 26%
07:00 +28°C° 0 mm 1 mps 678 mmHg 21%
08:00 +29°C° 0 mm 2 mps 678 mmHg 19%
09:00 +31°C° 0 mm 3 mps 678 mmHg 17%
10:00 +34°C° 0 mm 4 mps 678 mmHg 15%
11:00 +36°C° 0 mm 5 mps 678 mmHg 14%
12:00 +37°C° 0 mm 5 mps 678 mmHg 13%
13:00 +40°C° 0 mm 6 mps 678 mmHg 11%
14:00 +41°C° 0 mm 7 mps 678 mmHg 11%
15:00 +41°C° 0 mm 8 mps 678 mmHg 11%
16:00 +43°C° 0 mm 10 mps 678 mmHg 10%
17:00 +40°C° 0 mm 8 mps 678 mmHg 12%
18:00 +36°C° 0 mm 7 mps 678 mmHg 14%
19:00 +34°C° 0 mm 6 mps 678 mmHg 17%
20:00 +32°C° 0 mm 5 mps 678 mmHg 20%
21:00 +29°C° 0 mm 4 mps 678 mmHg 23%
22:00 +27°C° 0 mm 3 mps 678 mmHg 26%
23:00 +26°C° 0 mm 3 mps 677 mmHg 30%

8 August, Saturday

Time Temperature Precipitation Wind Pressure Humidity
00:00 +25°C° 0 mm 3 mps 677 mmHg 33%
01:00 +24°C° 0 mm 3 mps 677 mmHg 36%
02:00 +22°C° 0 mm 3 mps 677 mmHg 39%
03:00 +23°C° 0 mm 2 mps 677 mmHg 41%
04:00 +21°C° 0 mm 2 mps 676 mmHg 44%
05:00 +23°C° 0 mm 2 mps 677 mmHg 40%
06:00 +24°C° 0 mm 2 mps 677 mmHg 36%
07:00 +26°C° 0 mm 2 mps 678 mmHg 33%
08:00 +28°C° 0 mm 3 mps 678 mmHg 29%
09:00 +29°C° 0 mm 3 mps 678 mmHg 26%
10:00 +32°C° 0 mm 4 mps 678 mmHg 23%
11:00 +34°C° 0 mm 5 mps 678 mmHg 21%
12:00 +36°C° 0 mm 6 mps 678 mmHg 18%
13:00 +39°C° 0 mm 7 mps 677 mmHg 16%
14:00 +39°C° 0 mm 8 mps 677 mmHg 16%
15:00 +39°C° 0 mm 8 mps 677 mmHg 16%
16:00 +39°C° 0 mm 9 mps 677 mmHg 15%
17:00 +37°C° 0 mm 8 mps 676 mmHg 18%
18:00 +34°C° 0 mm 8 mps 676 mmHg 20%
19:00 +33°C° 0 mm 7 mps 676 mmHg 23%
20:00 +30°C° 0 mm 6 mps 676 mmHg 27%
21:00 +28°C° 0 mm 5 mps 677 mmHg 31%
22:00 +26°C° 0 mm 3 mps 677 mmHg 35%
23:00 +25°C° 0 mm 3 mps 676 mmHg 38%
Show more